Terug naar catalogus

NIMIQ 4

ActiefCommunicatieGEO
NORAD 33373·PAYLOAD·🇨🇦 Canada

Gelanceerd Sep 19, 2008 vanaf Baikonur Cosmodrome

Loading…

TLE

VersSource: CelesTrak SupGP

Epoch: Sep 14, 2026, 04:59 UTC

1 33373C 08044A   26257.20833333 -.00000135  00000+0  00000+0 0  2577
2 33373   0.0129 115.0960 0002029  49.5584 181.5551  1.00271371    12

Volg NIMIQ 4 in realtime met AllMySat

Download on the App Store